Station ICAC1 - 9410840 - Santa Monica Pier Image indicating link to RSS feed of recent meteorological observations for station ICAC1


Conditions at ICAC1 as of
(9:30 am PDT)
1630 GMT on 06/23/2024:
     

Click on the graph icon in the table below to see a time series plot of the last five days of that observation.

5-day plot - Atmospheric Pressure Atmospheric Pressure (PRES):29.89 in
5-day plot - Air Temperature Air Temperature (ATMP): 63.1 °F
5-day plot - Water Temperature Water Temperature (WTMP): 63.0 °F
NOS Water Level Observation Network Water Level
Previous observations
TIME
(PDT)
5-day plot - Wind Direction
WDIR
 
5-day plot - Wind Speed
WSPD
kts
5-day plot - Wind Gust
GST
kts
5-day plot - Wave Height
WVHT
ft
5-day plot - Dominant Wave Period
DPD
sec
5-day plot - Average Wave Period
APD
sec
5-day plot - Mean Wave Direction
MWD
 
5-day plot - Atmospheric Pressure
PRES
in
5-day plot - Pressure Tendency
PTDY
in
5-day plot - Air Temperature
ATMP
°F
5-day plot - Water Temperature
WTMP
°F
5-day plot - Dew Point
DEWP
°F
5-day plot - Salinity
SAL
psu
5-day plot - Visibility
VIS
nmi
5-day plot - Tide (above MLLW)
TIDE
ft
2024-06-23 09:24 am-------29.89- 63.1 63.1----
2024-06-23 09:18 am-------29.89- 63.3 63.3----
2024-06-23 09:12 am-------29.89- 63.1 63.5----
2024-06-23 09:06 am-------29.89- 63.0 64.0----
2024-06-23 09:00 am-------29.89- 63.0 64.4----
2024-06-23 08:54 am-------29.89- 63.0 64.8----
2024-06-23 08:48 am-------29.88- 63.0 64.9----
2024-06-23 08:42 am-------29.88- 63.0 65.5----
2024-06-23 08:36 am-------29.88- 62.8 65.8----
2024-06-23 08:30 am-------29.88- 62.8 65.8----
2024-06-23 08:24 am-------29.88- 63.0 66.0----
2024-06-23 08:18 am-------29.89-- 66.2----
2024-06-23 08:12 am-------29.89-- 66.0----
2024-06-23 08:06 am-------29.89-- 66.2----
2024-06-23 08:00 am-------29.89+0.02------
2024-06-23 07:54 am-------29.88-------
2024-06-23 07:48 am-------29.88- 62.4 66.2----
2024-06-23 07:42 am-------29.88- 62.6 66.4----
2024-06-23 07:36 am-------29.88- 62.1 66.4----
2024-06-23 07:30 am-------29.88- 62.1 66.4----
2024-06-23 07:24 am-------29.88- 61.9 66.7----
2024-06-23 07:18 am-------29.88-- 66.9----
2024-06-23 07:12 am-------29.87-- 66.9----
2024-06-23 07:06 am-------29.87-- 67.1----
2024-06-23 07:00 am--------- 61.9 67.1----
2024-06-23 06:54 am--------- 61.7 66.9----
2024-06-23 06:48 am-------29.87- 61.7 66.9----
2024-06-23 06:42 am-------29.86- 61.7 66.9----
2024-06-23 06:36 am-------29.86- 61.7 66.9----
2024-06-23 06:30 am-------29.86-- 66.9----
2024-06-23 06:24 am-------29.86-- 66.9----
2024-06-23 06:18 am-------29.86- 61.5 66.9----
2024-06-23 06:12 am-------29.86- 61.5 66.9----
2024-06-23 06:06 am-------29.86- 61.5 66.9----
2024-06-23 06:00 am---------- 66.9----
2024-06-23 05:54 am---------- 66.9----
2024-06-23 05:48 am-------29.86- 61.5 66.7----
2024-06-23 05:42 am-------29.86- 61.3 66.7----
2024-06-23 05:36 am-------29.87- 61.5 66.7----
2024-06-23 05:30 am-------29.87- 61.3 66.7----
2024-06-23 05:24 am-------29.87- 61.3 66.7----
2024-06-23 05:18 am-------29.86- 61.2 66.7----
2024-06-23 05:12 am-------29.87- 61.3 66.7----
2024-06-23 05:06 am-------29.87- 61.3 66.7----
2024-06-23 05:00 am-------29.87+0.00- 66.9----
2024-06-23 04:54 am-------29.86-- 66.9----
2024-06-23 04:48 am-------29.86- 61.3 66.7----
2024-06-23 04:42 am-------29.86- 61.3 66.7----
2024-06-23 04:36 am-------29.86- 61.3 66.7----
2024-06-23 04:30 am-------29.86- 61.5 66.7----
2024-06-23 04:24 am-------29.85- 61.3 66.7----
2024-06-23 04:18 am-------29.85-- 66.7----
2024-06-23 04:12 am-------29.86-- 66.7----
2024-06-23 04:06 am-------29.85-- 66.7----
2024-06-23 04:00 am--------- 61.2 66.7----
2024-06-23 03:54 am--------- 61.2 66.7----
2024-06-23 03:48 am-------29.85- 61.0 66.7----
2024-06-23 03:42 am-------29.85- 61.0 66.6----
2024-06-23 03:36 am-------29.85- 61.2 66.6----
2024-06-23 03:30 am-------29.85- 61.2 66.6----
2024-06-23 03:24 am-------29.85- 61.2 66.4----
2024-06-23 03:18 am-------29.85- 61.2 66.4----
2024-06-23 03:12 am-------29.85- 61.3 66.2----
2024-06-23 03:06 am-------29.85- 61.3 66.2----
2024-06-23 03:00 am-------29.85-0.03- 66.2----
2024-06-23 02:54 am-------29.86-- 66.2----
2024-06-23 02:48 am-------29.86- 61.3 66.0----
2024-06-23 02:42 am-------29.86- 61.3 65.8----
2024-06-23 02:36 am-------29.86- 61.3 65.8----
2024-06-23 02:30 am-------29.87- 61.3 65.8----
2024-06-23 02:24 am-------29.87- 61.5 65.7----
2024-06-23 02:18 am-------29.87- 61.5 65.5----
2024-06-23 02:12 am-------29.87- 61.5 65.5----
2024-06-23 02:06 am-------29.87- 61.5 65.3----
2024-06-23 02:00 am-------29.87- 61.5 65.3----
2024-06-23 01:54 am-------29.87- 61.5 64.9----
2024-06-23 01:48 am-------29.88- 61.5 64.6----
2024-06-23 01:42 am-------29.88- 61.3 64.6----
2024-06-23 01:36 am-------29.88- 61.5 64.6----
2024-06-23 01:30 am-------29.88- 61.3 64.6----
2024-06-23 01:24 am-------29.88- 61.5 64.4----
2024-06-23 01:18 am-------29.88- 61.7 64.4----
2024-06-23 01:12 am-------29.88- 61.7 64.4----
2024-06-23 01:06 am-------29.88- 61.7 64.2----
2024-06-23 01:00 am-------29.88+0.00 61.9 64.0----
2024-06-23 12:54 am-------29.88- 62.1 64.0----
2024-06-23 12:48 am-------29.88- 62.2 64.0----
2024-06-23 12:42 am-------29.88- 62.2 64.0----
2024-06-23 12:36 am-------29.88- 62.2 64.0----
2024-06-23 12:30 am-------29.88- 62.2 64.0----
2024-06-23 12:24 am-------29.88- 62.2 64.0----
2024-06-23 12:18 am-------29.88- 62.2 63.9----
2024-06-23 12:12 am-------29.88- 62.2 64.0----
2024-06-23 12:06 am-------29.88- 62.4 64.0----
2024-06-23 12:00 am-------29.88+0.02 62.4 64.0----
2024-06-22 11:54 pm-------29.88- 62.6 64.0----
2024-06-22 11:48 pm-------29.88- 62.8 63.9----
2024-06-22 11:42 pm-------29.88- 62.6 63.9----
2024-06-22 11:36 pm-------29.88- 63.0 64.0----
2024-06-22 11:30 pm-------29.88- 62.8 64.0----
2024-06-22 11:24 pm-------29.88- 63.0 64.0----
2024-06-22 11:18 pm-------29.88- 63.0 63.9----
2024-06-22 11:12 pm-------29.88- 63.3 63.9----
2024-06-22 11:06 pm-------29.89- 63.5 63.7----
2024-06-22 11:00 pm--------- 63.3 63.7----
2024-06-22 10:54 pm--------- 63.1 63.9----
2024-06-22 10:48 pm-------29.89- 63.3 64.0----
2024-06-22 10:42 pm-------29.88- 63.3 63.7----
2024-06-22 10:36 pm-------29.88- 63.3 63.5----
2024-06-22 10:30 pm-------29.88-- 63.3----
2024-06-22 10:24 pm-------29.88-- 63.3----
2024-06-22 10:18 pm-------29.88- 64.0 63.5----
2024-06-22 10:12 pm-------29.88- 64.0 63.5----
2024-06-22 10:06 pm-------29.88- 64.2 63.7----
2024-06-22 10:00 pm-------29.87+0.04 63.9 63.5----
2024-06-22 09:54 pm-------29.87- 63.9 63.3----
2024-06-22 09:48 pm-------29.87- 63.9 63.5----
2024-06-22 09:42 pm-------29.87- 63.9 63.7----
2024-06-22 09:36 pm-------29.87- 63.9 63.5----
2024-06-22 09:30 pm-------29.87- 63.9 63.5----
2024-06-22 09:24 pm-------29.87- 63.9 63.5----
2024-06-22 09:18 pm-------29.86-- 63.3----
2024-06-22 09:12 pm-------29.86-- 63.3----
2024-06-22 09:06 pm-------29.86-- 63.3----
2024-06-22 09:00 pm-------29.86+0.04 63.5 63.3----
2024-06-22 08:54 pm-------29.86- 63.5 63.3----
2024-06-22 08:48 pm-------29.85- 63.5 63.1----
2024-06-22 08:42 pm-------29.85- 63.3 63.3----
2024-06-22 08:36 pm-------29.85- 63.3 63.7----
2024-06-22 08:30 pm-------29.85- 63.3 63.7----
2024-06-22 08:24 pm-------29.85- 63.3 63.7----
2024-06-22 08:18 pm-------29.85- 63.3 63.9----
2024-06-22 08:12 pm-------29.85- 63.3 64.0----
2024-06-22 08:06 pm-------29.85- 63.3 64.2----
2024-06-22 08:00 pm-------29.85+0.03- 64.0----
2024-06-22 07:54 pm-------29.85-- 64.2----
2024-06-22 07:48 pm-------29.85-- 64.4----
2024-06-22 07:42 pm-------29.85-- 64.6----
2024-06-22 07:36 pm-------29.85-- 64.8----
2024-06-22 07:30 pm-------29.84- 64.4 64.9----
2024-06-22 07:24 pm-------29.84- 64.6 65.1----
2024-06-22 07:18 pm-------29.84- 64.6 65.5----
2024-06-22 07:12 pm-------29.84- 64.6 65.7----
2024-06-22 07:06 pm-------29.83- 64.6 65.8----
2024-06-22 07:00 pm-------29.83+0.01- 66.0----
2024-06-22 06:54 pm-------29.83-- 66.4----
2024-06-22 06:48 pm-------29.83- 64.4 66.9----
2024-06-22 06:42 pm-------29.83- 64.2 67.3----
2024-06-22 06:36 pm-------29.83- 64.0 67.3----
2024-06-22 06:30 pm-------29.82-------
2024-06-22 06:24 pm-------29.82-------
2024-06-22 06:18 pm-------29.82- 64.4 68.5----
2024-06-22 06:12 pm-------29.82- 64.4 68.7----
2024-06-22 06:06 pm-------29.82- 64.2 68.9----
2024-06-22 06:00 pm-------29.82+0.00 64.4 69.3----
2024-06-22 05:54 pm-------29.82- 64.4 69.3----
2024-06-22 05:48 pm-------29.82- 64.2 69.4----
2024-06-22 05:42 pm-------29.82- 64.4 69.4----
2024-06-22 05:36 pm-------29.82- 64.2 69.8----
2024-06-22 05:30 pm-------29.82- 64.4 70.0----
2024-06-22 05:24 pm-------29.82- 64.4 70.0----
2024-06-22 05:18 pm-------29.82- 64.0 69.8----
2024-06-22 05:12 pm-------29.82- 64.4 69.6----
2024-06-22 05:06 pm-------29.82- 64.2 69.6----
2024-06-22 05:00 pm-------29.82-0.01 64.0 69.8----
2024-06-22 04:54 pm-------29.82- 64.2 69.4----
2024-06-22 04:48 pm---------- 69.3----
2024-06-22 04:42 pm---------- 69.4----
2024-06-22 04:36 pm---------- 69.6----
2024-06-22 04:30 pm-------29.82- 64.0 69.6----
2024-06-22 04:24 pm-------29.82- 64.4 69.4----
2024-06-22 04:18 pm-------29.82- 64.2 69.3----
2024-06-22 04:12 pm-------29.82- 64.2 69.4----
2024-06-22 04:06 pm-------29.82- 64.0 69.4----
2024-06-22 04:00 pm-------29.82-0.01- 69.4----
2024-06-22 03:54 pm-------29.82-- 69.4----
2024-06-22 03:48 pm-------29.82- 64.0 69.6----
2024-06-22 03:42 pm-------29.82- 64.0 69.6----
2024-06-22 03:36 pm-------29.83- 64.2 69.6----
2024-06-22 03:30 pm-------29.83- 64.2 69.4----
2024-06-22 03:24 pm-------29.82- 64.2 69.4----
2024-06-22 03:18 pm-------29.83- 64.0 69.4----
2024-06-22 03:12 pm-------29.83- 64.2 69.3----
2024-06-22 03:06 pm-------29.83- 64.0 69.3----
2024-06-22 03:00 pm-------29.83-0.01 63.9 69.3----
2024-06-22 02:54 pm-------29.83- 63.9 69.1----
2024-06-22 02:48 pm-------29.83- 63.7 69.1----
2024-06-22 02:42 pm-------29.83- 63.7 68.9----
2024-06-22 02:36 pm-------29.83- 63.5 68.7----
2024-06-22 02:30 pm-------29.83-- 68.7----
2024-06-22 02:24 pm-------29.83-- 68.7----
2024-06-22 02:18 pm-------29.83- 63.5 68.9----
2024-06-22 02:12 pm-------29.83- 63.7 68.9----
2024-06-22 02:06 pm-------29.83- 63.3 68.9----
2024-06-22 02:00 pm-------29.83-0.01 63.3 68.9----
2024-06-22 01:54 pm-------29.83- 63.5 68.7----
2024-06-22 01:48 pm-------29.83-- 68.7----
2024-06-22 01:42 pm-------29.83-- 68.7----
2024-06-22 01:36 pm-------29.83-- 68.7----
2024-06-22 01:30 pm--------- 63.3 68.5----
2024-06-22 01:24 pm--------- 63.0 68.4----
2024-06-22 01:18 pm-------29.83-- 68.4----
2024-06-22 01:12 pm-------29.83-- 68.2----
2024-06-22 01:06 pm-------29.83-- 68.2----
2024-06-22 01:00 pm-------29.83-0.01 63.3 68.0----
2024-06-22 12:54 pm-------29.83- 63.3 67.8----
2024-06-22 12:48 pm-------29.83- 63.3 67.8----
2024-06-22 12:42 pm-------29.83- 63.1 67.6----
2024-06-22 12:36 pm-------29.83- 63.3 67.6----
2024-06-22 12:30 pm-------29.83- 63.3 67.8----
2024-06-22 12:24 pm-------29.83- 63.3 67.8----
2024-06-22 12:18 pm-------29.83- 63.1 67.8----
2024-06-22 12:12 pm-------29.84- 63.1 67.8----
2024-06-22 12:06 pm-------29.84- 63.1 67.6----
2024-06-22 12:00 pm-------29.84+0.00 63.5 67.6----
2024-06-22 11:54 am-------29.84- 63.5 67.5----
2024-06-22 11:48 am-------29.84- 63.7 67.5----
2024-06-22 11:42 am-------29.84- 64.0 67.5----
2024-06-22 11:36 am-------29.84- 64.0 67.3----
2024-06-22 11:30 am-------29.84- 64.0 67.1----
2024-06-22 11:24 am-------29.84- 64.0 67.1----
2024-06-22 11:18 am-------29.84- 64.0-----
2024-06-22 11:12 am-------29.84- 64.0-----
2024-06-22 11:06 am-------29.84- 64.0-----
2024-06-22 11:00 am-------29.84+0.02 64.2 66.2----
2024-06-22 10:54 am-------29.84- 64.0 65.8----
2024-06-22 10:48 am-------29.84- 64.2 65.5----
2024-06-22 10:42 am-------29.84- 64.4 64.9----
2024-06-22 10:36 am-------29.84- 64.4 64.9----
2024-06-22 10:30 am-------29.84- 64.4 64.8----
2024-06-22 10:24 am-------29.84- 64.2 64.4----
2024-06-22 10:18 am-------29.84- 64.2 64.2----
2024-06-22 10:12 am-------29.84- 64.2 63.9----
2024-06-22 10:06 am-------29.84- 64.2 63.3----
2024-06-22 10:00 am-------29.84+0.03 64.0 62.8----
2024-06-22 09:54 am-------29.84- 64.0 62.8----